Weather Roundup
Issued by NWS Springfield, MO

Home | Current Version | Previous Version | Text Only | Print | Product List | Glossary On
Versions: 1 2 3 4 5 6 7 8 9 10 11 12 13 14 15 16 17 18 19 20 21 22 23 24 25 26 27 28 29 30 31 32 33 34 35 36 37 38 39 40 41 42 43 44 45 46 47 48 49 50
000
NZUS99 KSGF 201457
HRRSGF

HOURLY WEATHER
NATIONAL WEATHER SERVICE SPRINGFIELD MO
1000 AM CDT WED SEP 20 2017

......SGF CWA......

CITY           SKY/WX    TMP DP  RH WIND       PRES   REMARKS
SPRINGFIELD    SUNNY     79  73  82 S16       29.91R
JOPLIN         SUNNY     82  74  76 S21G29    29.87R
WEST PLAINS    SUNNY     81  71  71 S12       29.97R
ROLLA          SUNNY     82  72  71 SW14      29.94R
BRANSON        MOSUNNY   82  72  69 SW5       29.95R

......SURROUNDING SGF CWA......

CITY           SKY/WX    TMP DP  RH WIND       PRES   REMARKS
CHANUTE        MOSUNNY   81  72  74 S20G28    29.83R
COFFEYVILLE    MOSUNNY   82  73  74 S16G24    29.83R
EMPORIA        SUNNY     79  69  71 S16       29.79S
HARRISON AR    SUNNY     84  71  65 S8        29.95S

......KANSAS AND MISSOURI......

CITY           SKY/WX    TMP DP  RH WIND       PRES   REMARKS
KANSAS CTY INT MOSUNNY   79  72  79 S20G25    29.79S
SEDALIA        SUNNY     81  73  76 SW13G25   29.87R
ST JOSEPH      SUNNY     80  72  76 S14       29.77R
ST LOUIS       MOSUNNY   83  72  69 S13       29.92S
WICHITA        MOSUNNY   81  67  62 SW16      29.79R
TOPEKA         SUNNY     80  71  74 S15       29.77R
OLATHE         MOSUNNY   78  73  84 S15G23    29.82R

......TENNESSEE......

CITY           SKY/WX    TMP DP  RH WIND       PRES   REMARKS
MEMPHIS        NOT AVBL
NASHVILLE      MOSUNNY   78  69  73 S3        30.07S

......ARKANSAS.......

CITY           SKY/WX    TMP DP  RH WIND       PRES   REMARKS
FAYETTEVILLE   SUNNY     81  75  82 S17G23    29.93R
FT SMITH       MOSUNNY   86  74  67 S8        29.91R HX  94
LITTLE ROCK    PTSUNNY   81  75  82 W14G25    29.98R

......OKLAHOMA.......

CITY           SKY/WX    TMP DP  RH WIND       PRES   REMARKS
TULSA          MOSUNNY   84  73  69 S22G29    29.82R HX  90
PONCA CITY     SUNNY     82  69  64 S12G17    29.81R
MCALESTER      SUNNY     84  72  67 S9G21     29.89R
OKLAHOMA CITY  MOSUNNY   81  71  71 S20G25    29.82R

......IOWA............

CITY           SKY/WX    TMP DP  RH WIND       PRES   REMARKS
DES MOINES     NOT AVBL
QUAD CITIES    SUNNY     82  68  62 S12G18    29.82F

......ILLINOIS........

CITY           SKY/WX    TMP DP  RH WIND       PRES   REMARKS
QUINCY         NOT AVBL
CHICAGO        MOSUNNY   78  66  66 S10       29.90F




USA.gov is the U.S. government's official web portal to all federal, state and local government web resources and services.